Time,TemperatureF,DewpointF,PressureIn,WindDirection,WindDirectionDegrees,WindSpeedMPH,WindSpeedGustMPH,Humidity,HourlyPrecipIn,Conditions,Clouds,dailyrainin,SoftwareType,DateUTC
2013-03-28 00:00:00,29.8,-3.5,29.24,NW,313,0.0,3.0,23,0.00,CLR,,0.00,WeatherDisplay:10.37,2013-03-28 04:00:00,
2013-03-28 00:05:00,29.7,-3.7,29.24,NW,313,0.0,3.0,23,0.00,CLR,,0.00,WeatherDisplay:10.37,2013-03-28 04:05:00,
2013-03-28 00:10:00,29.7,-3.7,29.24,NW,313,0.0,3.0,23,0.00,CLR,,0.00,WeatherDisplay:10.37,2013-03-28 04:10:00,
2013-03-28 00:15:00,29.7,-3.7,29.24,NW,313,0.0,3.0,23,0.00,CLR,,0.00,WeatherDisplay:10.37,2013-03-28 04:15:00,
2013-03-28 00:20:00,29.7,-3.7,29.24,NW,313,0.0,3.0,23,0.00,CLR,,0.00,WeatherDisplay:10.37,2013-03-28 04:20:00,
2013-03-28 00:25:00,29.7,-3.7,29.24,NW,313,0.0,3.0,23,0.00,CLR,,0.00,WeatherDisplay:10.37,2013-03-28 04:25:00,
2013-03-28 00:30:00,29.7,-3.7,29.24,NW,313,0.0,3.0,23,0.00,CLR,,0.00,WeatherDisplay:10.37,2013-03-28 04:30:00,
2013-03-28 00:35:00,29.7,-3.7,29.24,NW,313,1.0,4.0,23,0.00,CLR,,0.00,WeatherDisplay:10.37,2013-03-28 04:35:00,
2013-03-28 00:45:00,29.7,-3.7,29.24,NW,313,1.0,4.0,23,0.00,CLR,,0.00,WeatherDisplay:10.37,2013-03-28 04:45:00,
2013-03-28 00:50:00,29.8,-3.6,29.24,NW,312,0.0,4.0,23,0.00,CLR,,0.00,WeatherDisplay:10.37,2013-03-28 04:50:00,
2013-03-28 00:55:00,29.7,-3.7,29.24,NW,311,0.0,3.0,23,0.00,CLR,,0.00,WeatherDisplay:10.37,2013-03-28 04:55:00,
2013-03-28 01:00:00,29.5,-3.8,29.24,NW,311,0.0,2.0,23,0.00,CLR,,0.00,WeatherDisplay:10.37,2013-03-28 05:00:00,
2013-03-28 01:05:00,29.5,-3.8,29.24,NW,311,0.0,2.0,23,0.00,CLR,,0.00,WeatherDisplay:10.37,2013-03-28 05:05:00,
2013-03-28 01:10:00,29.3,-4.0,29.24,NW,311,0.0,3.0,23,0.00,CLR,,0.00,WeatherDisplay:10.37,2013-03-28 05:10:00,
2013-03-28 01:15:00,29.3,-4.0,29.24,NW,311,0.0,3.0,23,0.00,CLR,,0.00,WeatherDisplay:10.37,2013-03-28 05:15:00,
2013-03-28 01:20:00,29.1,-4.1,29.24,NW,311,0.0,3.0,23,0.00,CLR,,0.00,WeatherDisplay:10.37,2013-03-28 05:20:00,
2013-03-28 01:25:00,29.0,-4.2,29.24,NW,311,0.0,4.0,23,0.00,CLR,,0.00,WeatherDisplay:10.37,2013-03-28 05:25:00,
2013-03-28 01:30:00,28.9,-4.3,29.24,NW,311,0.0,3.0,23,0.00,CLR,,0.00,WeatherDisplay:10.37,2013-03-28 05:30:00,
2013-03-28 01:35:00,28.9,-4.3,29.24,NW,311,0.0,3.0,23,0.00,CLR,,0.00,WeatherDisplay:10.37,2013-03-28 05:35:00,
2013-03-28 01:40:00,28.7,-4.5,29.24,NW,311,0.0,3.0,23,0.00,CLR,,0.00,WeatherDisplay:10.37,2013-03-28 05:40:00,
2013-03-28 01:45:00,28.6,-4.6,29.24,NW,311,0.0,2.0,23,0.00,CLR,,0.00,WeatherDisplay:10.37,2013-03-28 05:45:00,
2013-03-28 01:50:00,28.4,-4.8,29.24,NW,311,0.0,0.0,23,0.00,CLR,,0.00,WeatherDisplay:10.37,2013-03-28 05:50:00,
2013-03-28 01:55:00,28.2,-4.9,29.24,NW,311,0.0,0.0,23,0.00,CLR,,0.00,WeatherDisplay:10.37,2013-03-28 05:55:00,
2013-03-28 02:00:00,27.9,-5.2,29.24,NW,311,0.0,3.0,23,0.00,CLR,,0.00,WeatherDisplay:10.37,2013-03-28 06:00:00,
2013-03-28 02:05:00,27.9,-5.2,29.24,NW,311,0.0,0.0,23,0.00,CLR,,0.00,WeatherDisplay:10.37,2013-03-28 06:05:00,
2013-03-28 02:10:00,27.7,-5.4,29.24,NW,311,0.0,0.0,23,0.00,CLR,,0.00,WeatherDisplay:10.37,2013-03-28 06:10:00,
2013-03-28 02:15:00,27.7,-5.4,29.24,NW,311,0.0,0.0,23,0.00,CLR,,0.00,WeatherDisplay:10.37,2013-03-28 06:15:00,
2013-03-28 02:20:00,27.5,-3.8,29.24,NW,311,0.0,0.0,25,0.00,CLR,,0.00,WeatherDisplay:10.37,2013-03-28 06:20:00,
2013-03-28 02:25:00,27.3,-3.1,29.24,NW,311,0.0,2.0,26,0.00,CLR,,0.00,WeatherDisplay:10.37,2013-03-28 06:25:00,
2013-03-28 02:30:00,27.4,-3.1,29.24,NW,311,0.0,0.0,26,0.00,CLR,,0.00,WeatherDisplay:10.37,2013-03-28 06:30:00,
2013-03-28 02:35:00,27.5,-3.0,29.24,NW,311,0.0,3.0,26,0.00,CLR,,0.00,WeatherDisplay:10.37,2013-03-28 06:35:00,
2013-03-28 02:40:00,27.5,-3.0,29.24,NW,311,0.0,3.0,26,0.00,CLR,,0.00,WeatherDisplay:10.37,2013-03-28 06:40:00,
2013-03-28 02:45:00,27.3,-3.1,29.24,NW,311,0.0,0.0,26,0.00,CLR,,0.00,WeatherDisplay:10.37,2013-03-28 06:45:00,
2013-03-28 02:55:00,27.0,-3.4,29.24,NW,311,0.0,0.0,26,0.00,CLR,,0.00,WeatherDisplay:10.37,2013-03-28 06:55:00,
2013-03-28 03:00:00,27.0,-3.4,29.24,NW,311,0.0,0.0,26,0.00,CLR,,0.00,WeatherDisplay:10.37,2013-03-28 07:00:00,
2013-03-28 03:05:00,26.8,-3.6,29.24,NW,311,0.0,0.0,26,0.00,CLR,,0.00,WeatherDisplay:10.37,2013-03-28 07:05:00,
2013-03-28 03:10:00,26.8,-2.0,29.24,NW,311,0.0,2.0,28,0.00,CLR,,0.00,WeatherDisplay:10.37,2013-03-28 07:10:00,
2013-03-28 03:15:00,26.8,-2.8,29.24,NW,311,0.0,0.0,27,0.00,CLR,,0.00,WeatherDisplay:10.37,2013-03-28 07:15:00,
2013-03-28 03:20:00,26.9,-1.2,29.24,NW,311,0.0,0.0,29,0.00,CLR,,0.00,WeatherDisplay:10.37,2013-03-28 07:20:00,
2013-03-28 03:25:00,27.0,-3.4,29.24,NW,311,0.0,0.0,26,0.00,CLR,,0.00,WeatherDisplay:10.37,2013-03-28 07:25:00,
2013-03-28 03:30:00,27.0,-1.9,29.24,NW,308,0.0,2.0,28,0.00,CLR,,0.00,WeatherDisplay:10.37,2013-03-28 07:30:00,
2013-03-28 03:35:00,26.6,-1.4,29.24,NW,309,0.0,0.0,29,0.00,CLR,,0.00,WeatherDisplay:10.37,2013-03-28 07:35:00,
2013-03-28 03:40:00,26.4,-0.2,29.24,NW,311,0.0,0.0,31,0.00,CLR,,0.00,WeatherDisplay:10.37,2013-03-28 07:40:00,
2013-03-28 03:45:00,26.2,-0.3,29.24,NW,311,0.0,0.0,31,0.00,CLR,,0.00,WeatherDisplay:10.37,2013-03-28 07:45:00,
2013-03-28 03:50:00,26.2,-0.3,29.24,NW,311,0.0,0.0,31,0.00,CLR,,0.00,WeatherDisplay:10.37,2013-03-28 07:50:00,
2013-03-28 03:55:00,26.1,-0.5,29.24,NW,311,0.0,0.0,31,0.00,CLR,,0.00,WeatherDisplay:10.37,2013-03-28 07:55:00,
2013-03-28 04:00:00,26.1,-0.5,29.24,NW,311,0.0,0.0,31,0.00,CLR,,0.00,WeatherDisplay:10.37,2013-03-28 08:00:00,
2013-03-28 04:05:00,26.1,0.2,29.24,NW,311,0.0,0.0,32,0.00,CLR,,0.00,WeatherDisplay:10.37,2013-03-28 08:05:00,
2013-03-28 04:10:00,26.1,0.2,29.24,NW,311,0.0,0.0,32,0.00,CLR,,0.00,WeatherDisplay:10.37,2013-03-28 08:10:00,
2013-03-28 04:15:00,26.1,0.2,29.24,NW,311,0.0,3.0,32,0.00,CLR,,0.00,WeatherDisplay:10.37,2013-03-28 08:15:00,
2013-03-28 04:20:00,26.1,0.2,29.24,NW,311,0.0,0.0,32,0.00,CLR,,0.00,WeatherDisplay:10.37,2013-03-28 08:20:00,
2013-03-28 04:25:00,26.1,0.2,29.24,NW,311,0.0,0.0,32,0.00,CLR,,0.00,WeatherDisplay:10.37,2013-03-28 08:25:00,
2013-03-28 04:30:00,25.9,-0.7,29.24,NW,311,0.0,0.0,31,0.00,CLR,,0.00,WeatherDisplay:10.37,2013-03-28 08:30:00,
2013-03-28 04:35:00,25.8,-0.1,29.24,NW,311,0.0,0.0,32,0.00,CLR,,0.00,WeatherDisplay:10.37,2013-03-28 08:35:00,
2013-03-28 04:40:00,25.9,0.0,29.24,NW,311,0.0,0.0,32,0.00,CLR,,0.00,WeatherDisplay:10.37,2013-03-28 08:40:00,
2013-03-28 04:45:00,25.9,0.0,29.24,NW,311,0.0,0.0,32,0.00,CLR,,0.00,WeatherDisplay:10.37,2013-03-28 08:45:00,
2013-03-28 04:50:00,25.9,0.1,29.24,NW,311,0.0,0.0,32,0.00,CLR,,0.00,WeatherDisplay:10.37,2013-03-28 08:50:00,
2013-03-28 04:55:00,25.7,-0.1,29.24,NW,311,0.0,0.0,32,0.00,CLR,,0.00,WeatherDisplay:10.37,2013-03-28 08:55:00,
2013-03-28 05:00:00,25.5,-0.3,29.24,NW,311,0.0,0.0,32,0.00,CLR,,0.00,WeatherDisplay:10.37,2013-03-28 09:00:00,
2013-03-28 05:05:00,25.3,-0.5,29.24,NW,311,0.0,2.0,32,0.00,CLR,,0.00,WeatherDisplay:10.37,2013-03-28 09:05:00,
2013-03-28 05:10:00,25.3,-0.5,29.24,NW,311,0.0,3.0,32,0.00,CLR,,0.00,WeatherDisplay:10.37,2013-03-28 09:10:00,
2013-03-28 05:15:00,25.5,-0.3,29.24,NW,311,0.0,0.0,32,0.00,CLR,,0.00,WeatherDisplay:10.37,2013-03-28 09:15:00,
2013-03-28 05:20:00,25.5,-0.3,29.24,NW,311,0.0,0.0,32,0.00,CLR,,0.00,WeatherDisplay:10.37,2013-03-28 09:20:00,
2013-03-28 05:25:00,25.5,-0.3,29.24,NW,311,0.0,0.0,32,0.00,CLR,,0.00,WeatherDisplay:10.37,2013-03-28 09:25:00,
2013-03-28 05:30:00,25.7,-0.1,29.24,NW,311,0.0,0.0,32,0.00,CLR,,0.00,WeatherDisplay:10.37,2013-03-28 09:30:00,
2013-03-28 05:35:00,25.7,-0.1,29.24,NW,311,0.0,0.0,32,0.00,CLR,,0.00,WeatherDisplay:10.37,2013-03-28 09:35:00,
2013-03-28 05:40:00,25.3,-0.5,29.24,NW,311,0.0,0.0,32,0.00,CLR,,0.00,WeatherDisplay:10.37,2013-03-28 09:40:00,
2013-03-28 05:45:00,25.2,-0.6,29.24,NW,311,0.0,0.0,32,0.00,CLR,,0.00,WeatherDisplay:10.37,2013-03-28 09:45:00,
2013-03-28 05:50:00,25.3,-0.5,29.24,NW,311,0.0,3.0,32,0.00,CLR,,0.00,WeatherDisplay:10.37,2013-03-28 09:50:00,
2013-03-28 05:55:00,25.3,-0.5,29.24,NW,311,0.0,3.0,32,0.00,CLR,,0.00,WeatherDisplay:10.37,2013-03-28 09:55:00,
2013-03-28 06:00:00,25.3,-0.5,29.24,NW,311,0.0,2.0,32,0.00,CLR,,0.00,WeatherDisplay:10.37,2013-03-28 10:00:00,
2013-03-28 06:05:00,25.5,-0.3,29.24,NW,311,0.0,0.0,32,0.00,CLR,,0.00,WeatherDisplay:10.37,2013-03-28 10:05:00,
2013-03-28 06:10:00,25.7,-0.1,29.24,NW,311,0.0,0.0,32,0.00,CLR,,0.00,WeatherDisplay:10.37,2013-03-28 10:10:00,
2013-03-28 06:15:00,25.6,-0.2,29.24,NW,311,0.0,3.0,32,0.00,CLR,,0.00,WeatherDisplay:10.37,2013-03-28 10:15:00,
2013-03-28 06:20:00,25.9,0.0,29.24,NW,312,0.0,3.0,32,0.00,CLR,,0.00,WeatherDisplay:10.37,2013-03-28 10:20:00,
2013-03-28 06:25:00,25.6,-0.2,29.24,NW,312,0.0,3.0,32,0.00,CLR,,0.00,WeatherDisplay:10.37,2013-03-28 10:25:00,
2013-03-28 06:30:00,25.5,-0.3,29.24,NW,312,0.0,3.0,32,0.00,CLR,,0.00,WeatherDisplay:10.37,2013-03-28 10:30:00,
2013-03-28 06:35:00,25.5,-0.3,29.24,NW,312,0.0,2.0,32,0.00,CLR,,0.00,WeatherDisplay:10.37,2013-03-28 10:35:00,
2013-03-28 06:40:00,25.7,0.5,29.24,NW,312,0.0,3.0,33,0.00,CLR,,0.00,WeatherDisplay:10.37,2013-03-28 10:40:00,
2013-03-28 06:45:00,25.7,-0.1,29.24,NW,312,0.0,3.0,32,0.00,CLR,,0.00,WeatherDisplay:10.37,2013-03-28 10:45:00,
2013-03-28 06:50:00,25.7,0.5,29.24,NW,312,0.0,2.0,33,0.00,CLR,,0.00,WeatherDisplay:10.37,2013-03-28 10:50:00,
2013-03-28 06:55:00,25.7,0.5,29.24,NW,312,0.0,4.0,33,0.00,CLR,,0.00,WeatherDisplay:10.37,2013-03-28 10:55:00,
2013-03-28 07:00:00,25.9,0.7,29.24,NW,312,0.0,3.0,33,0.00,CLR,,0.00,WeatherDisplay:10.37,2013-03-28 11:00:00,
2013-03-28 07:05:00,25.9,0.7,29.24,NW,312,0.0,3.0,33,0.00,CLR,,0.00,WeatherDisplay:10.37,2013-03-28 11:05:00,
2013-03-28 07:10:00,25.9,0.7,29.24,NW,311,0.0,3.0,33,0.00,CLR,,0.00,WeatherDisplay:10.37,2013-03-28 11:10:00,
2013-03-28 07:15:00,25.9,0.7,29.24,NW,311,0.0,3.0,33,0.00,CLR,,0.00,WeatherDisplay:10.37,2013-03-28 11:15:00,
2013-03-28 07:20:00,25.9,0.7,29.24,NW,311,0.0,3.0,33,0.00,CLR,,0.00,WeatherDisplay:10.37,2013-03-28 11:20:00,
2013-03-28 07:25:00,25.9,0.7,29.24,NW,311,0.0,2.0,33,0.00,CLR,,0.00,WeatherDisplay:10.37,2013-03-28 11:25:00,
2013-03-28 07:30:00,25.7,0.5,29.24,NW,311,0.0,2.0,33,0.00,CLR,,0.00,WeatherDisplay:10.37,2013-03-28 11:30:00,
2013-03-28 07:35:00,25.9,0.7,29.24,NW,311,0.0,3.0,33,0.00,CLR,,0.00,WeatherDisplay:10.37,2013-03-28 11:35:00,
2013-03-28 07:40:00,25.9,0.7,29.26,NW,311,0.0,0.0,33,0.00,CLR,,0.00,WeatherDisplay:10.37,2013-03-28 11:40:00,
2013-03-28 07:45:00,25.9,0.7,29.26,NW,311,0.0,0.0,33,0.00,CLR,,0.00,WeatherDisplay:10.37,2013-03-28 11:45:00,
2013-03-28 07:50:00,26.1,0.9,29.26,NW,311,0.0,0.0,33,0.00,CLR,,0.00,WeatherDisplay:10.37,2013-03-28 11:50:00,
2013-03-28 07:55:00,27.4,1.3,29.26,NW,311,0.0,0.0,32,0.00,CLR,,0.00,WeatherDisplay:10.37,2013-03-28 11:55:00,
2013-03-28 08:05:00,29.7,-3.6,29.26,NW,311,0.0,0.0,23,0.00,CLR,,0.00,WeatherDisplay:10.37,2013-03-28 12:05:00,
2013-03-28 08:10:00,29.6,-3.7,29.26,NW,311,0.0,3.0,23,0.00,CLR,,0.00,WeatherDisplay:10.37,2013-03-28 12:10:00,
2013-03-28 08:15:00,30.2,-3.2,29.26,NW,311,0.0,3.0,23,0.00,CLR,,0.00,WeatherDisplay:10.37,2013-03-28 12:15:00,
2013-03-28 08:20:00,30.6,-2.9,29.26,NW,311,0.0,3.0,23,0.00,CLR,,0.00,WeatherDisplay:10.37,2013-03-28 12:20:00,
2013-03-28 08:25:00,30.6,-2.9,29.26,NW,311,0.0,3.0,23,0.00,CLR,,0.00,WeatherDisplay:10.37,2013-03-28 12:25:00,
2013-03-28 08:30:00,30.9,-2.7,29.26,NW,311,1.0,4.0,23,0.00,CLR,,0.00,WeatherDisplay:10.37,2013-03-28 12:30:00,
2013-03-28 08:35:00,30.7,-2.8,29.26,NW,311,0.0,3.0,23,0.00,CLR,,0.00,WeatherDisplay:10.37,2013-03-28 12:35:00,
2013-03-28 08:40:00,30.9,-2.6,29.26,NW,309,0.0,4.0,23,0.00,CLR,,0.00,WeatherDisplay:10.37,2013-03-28 12:40:00,
2013-03-28 08:45:00,31.3,-2.3,29.26,WNW,284,2.0,4.0,23,0.00,CLR,,0.00,WeatherDisplay:10.37,2013-03-28 12:45:00,
2013-03-28 08:50:00,31.9,-1.8,29.26,West,274,0.0,3.0,23,0.00,CLR,,0.00,WeatherDisplay:10.37,2013-03-28 12:50:00,
2013-03-28 08:55:00,32.2,-1.5,29.26,West,273,2.0,4.0,23,0.00,CLR,,0.00,WeatherDisplay:10.37,2013-03-28 12:55:00,
2013-03-28 09:00:00,32.7,-1.1,29.26,West,273,2.0,4.0,23,0.00,CLR,,0.00,WeatherDisplay:10.37,2013-03-28 13:00:00,
2013-03-28 09:05:00,33.2,-0.7,29.26,West,273,2.0,5.0,23,0.00,CLR,,0.00,WeatherDisplay:10.37,2013-03-28 13:05:00,
2013-03-28 09:10:00,33.4,-0.5,29.26,West,273,2.0,4.0,23,0.00,CLR,,0.00,WeatherDisplay:10.37,2013-03-28 13:10:00,
2013-03-28 09:15:00,33.8,-1.1,29.26,West,273,0.0,4.0,22,0.00,CLR,,0.00,WeatherDisplay:10.37,2013-03-28 13:15:00,
2013-03-28 09:20:00,34.1,-0.8,29.26,West,273,0.0,4.0,22,0.00,CLR,,0.00,WeatherDisplay:10.37,2013-03-28 13:20:00,
2013-03-28 09:25:00,34.4,-0.6,29.26,West,273,2.0,6.0,22,0.00,CLR,,0.00,WeatherDisplay:10.37,2013-03-28 13:25:00,
2013-03-28 09:35:00,34.9,-0.2,29.26,West,272,1.0,4.0,22,0.00,CLR,,0.00,WeatherDisplay:10.37,2013-03-28 13:35:00,
2013-03-28 09:40:00,35.2,0.1,29.24,West,261,3.0,6.0,22,0.00,CLR,,0.00,WeatherDisplay:10.37,2013-03-28 13:40:00,
2013-03-28 09:45:00,35.8,0.6,29.24,WSW,253,3.0,5.0,22,0.00,CLR,,0.00,WeatherDisplay:10.37,2013-03-28 13:45:00,
2013-03-28 09:50:00,36.3,1.0,29.24,WSW,250,2.0,4.0,22,0.00,CLR,,0.00,WeatherDisplay:10.37,2013-03-28 13:50:00,
2013-03-28 09:55:00,36.4,1.1,29.25,WSW,252,2.0,4.0,22,0.00,CLR,,0.00,WeatherDisplay:10.37,2013-03-28 13:55:00,
2013-03-28 10:00:00,37.2,1.7,29.26,WSW,255,2.0,4.0,22,0.00,CLR,,0.00,WeatherDisplay:10.37,2013-03-28 14:00:00,
2013-03-28 10:05:00,37.8,1.2,29.26,West,266,2.0,4.0,21,0.00,CLR,,0.00,WeatherDisplay:10.37,2013-03-28 14:05:00,
2013-03-28 10:10:00,37.9,1.3,29.26,West,270,3.0,5.0,21,0.00,CLR,,0.00,WeatherDisplay:10.37,2013-03-28 14:10:00,
2013-03-28 10:15:00,38.3,1.7,29.26,West,271,3.0,5.0,21,0.00,CLR,,0.00,WeatherDisplay:10.37,2013-03-28 14:15:00,
2013-03-28 10:20:00,38.9,2.2,29.26,West,270,0.0,5.0,21,0.00,CLR,,0.00,WeatherDisplay:10.37,2013-03-28 14:20:00,
2013-03-28 10:25:00,39.3,2.6,29.26,West,266,3.0,6.0,21,0.00,CLR,,0.00,WeatherDisplay:10.37,2013-03-28 14:25:00,
2013-03-28 10:35:00,39.9,-0.2,29.26,West,274,3.0,6.0,18,0.00,CLR,,0.00,WeatherDisplay:10.37,2013-03-28 14:35:00,
2013-03-28 10:40:00,40.3,0.1,29.26,West,271,3.0,6.0,18,0.00,CLR,,0.00,WeatherDisplay:10.37,2013-03-28 14:40:00,
2013-03-28 10:45:00,40.0,-0.2,29.26,West,269,3.0,6.0,18,0.00,CLR,,0.00,WeatherDisplay:10.37,2013-03-28 14:45:00,
2013-03-28 10:50:00,40.3,0.1,29.26,West,273,3.0,6.0,18,0.00,CLR,,0.00,WeatherDisplay:10.37,2013-03-28 14:50:00,
2013-03-28 10:55:00,40.6,0.4,29.26,West,274,3.0,6.0,18,0.00,CLR,,0.00,WeatherDisplay:10.37,2013-03-28 14:55:00,
2013-03-28 11:00:00,40.4,0.1,29.26,West,276,3.0,6.0,18,0.00,CLR,,0.00,WeatherDisplay:10.37,2013-03-28 15:00:00,
2013-03-28 11:05:00,40.6,0.3,29.26,West,268,2.0,6.0,18,0.00,CLR,,0.00,WeatherDisplay:10.37,2013-03-28 15:05:00,
2013-03-28 11:10:00,40.4,3.5,29.26,West,263,6.0,8.0,21,0.00,CLR,,0.00,WeatherDisplay:10.37,2013-03-28 15:10:00,
2013-03-28 11:15:00,40.5,3.5,29.26,WNW,289,3.0,6.0,21,0.00,CLR,,0.00,WeatherDisplay:10.37,2013-03-28 15:15:00,
2013-03-28 11:20:00,40.1,-0.1,29.26,NW,310,6.0,8.0,18,0.00,CLR,,0.00,WeatherDisplay:10.37,2013-03-28 15:20:00,
2013-03-28 11:25:00,40.0,-0.2,29.26,NW,314,6.0,6.0,18,0.00,CLR,,0.00,WeatherDisplay:10.37,2013-03-28 15:25:00,
2013-03-28 11:30:00,40.3,3.4,29.26,NW,321,6.0,6.0,21,0.00,CLR,,0.00,WeatherDisplay:10.37,2013-03-28 15:30:00,
2013-03-28 11:35:00,40.4,3.5,29.26,NW,325,5.0,8.0,21,0.00,CLR,,0.00,WeatherDisplay:10.37,2013-03-28 15:35:00,
2013-03-28 11:40:00,40.6,3.7,29.26,NW,319,5.0,6.0,21,0.00,CLR,,0.00,WeatherDisplay:10.37,2013-03-28 15:40:00,
2013-03-28 11:45:00,40.6,3.7,29.26,NW,312,5.0,6.0,21,0.00,CLR,,0.00,WeatherDisplay:10.37,2013-03-28 15:45:00,
2013-03-28 11:50:00,40.5,3.6,29.26,NW,315,6.0,7.0,21,0.00,CLR,,0.00,WeatherDisplay:10.37,2013-03-28 15:50:00,
2013-03-28 12:00:00,40.6,3.7,29.29,NW,315,5.0,8.0,21,0.00,CLR,,0.00,WeatherDisplay:10.37,2013-03-28 16:00:00,
2013-03-28 12:05:00,41.3,4.2,29.29,NW,314,5.0,6.0,21,0.00,CLR,,0.00,WeatherDisplay:10.37,2013-03-28 16:05:00,
2013-03-28 12:10:00,41.6,4.5,29.29,NW,309,5.0,6.0,21,0.00,CLR,,0.00,WeatherDisplay:10.37,2013-03-28 16:10:00,
2013-03-28 12:15:00,41.7,4.6,29.29,NW,306,6.0,8.0,21,0.00,CLR,,0.00,WeatherDisplay:10.37,2013-03-28 16:15:00,
2013-03-28 12:20:00,41.8,4.6,29.29,NW,307,5.0,6.0,21,0.00,CLR,,0.00,WeatherDisplay:10.37,2013-03-28 16:20:00,
2013-03-28 12:25:00,43.1,4.6,29.29,WNW,292,3.0,6.0,20,0.00,CLR,,0.00,WeatherDisplay:10.37,2013-03-28 16:25:00,
2013-03-28 12:30:00,43.0,4.6,29.29,West,277,3.0,6.0,20,0.00,CLR,,0.00,WeatherDisplay:10.37,2013-03-28 16:30:00,
2013-03-28 12:35:00,42.3,5.0,29.29,West,277,5.0,6.0,21,0.00,CLR,,0.00,WeatherDisplay:10.37,2013-03-28 16:35:00,
2013-03-28 12:40:00,42.4,5.2,29.29,West,278,5.0,6.0,21,0.00,CLR,,0.00,WeatherDisplay:10.37,2013-03-28 16:40:00,
2013-03-28 12:45:00,43.0,4.6,29.29,West,277,3.0,6.0,20,0.00,CLR,,0.00,WeatherDisplay:10.37,2013-03-28 16:45:00,
2013-03-28 12:50:00,43.0,4.6,29.29,West,268,3.0,6.0,20,0.00,CLR,,0.00,WeatherDisplay:10.37,2013-03-28 16:50:00,
2013-03-28 12:55:00,43.3,4.9,29.26,West,264,3.0,7.0,20,0.00,CLR,,0.00,WeatherDisplay:10.37,2013-03-28 16:55:00,
2013-03-28 13:00:00,43.6,5.1,29.26,West,266,3.0,6.0,20,0.00,CLR,,0.00,WeatherDisplay:10.37,2013-03-28 17:00:00,
2013-03-28 13:05:00,44.4,5.7,29.26,West,262,3.0,6.0,20,0.00,CLR,,0.00,WeatherDisplay:10.37,2013-03-28 17:05:00,
2013-03-28 13:10:00,43.8,5.3,29.26,WSW,253,5.0,8.0,20,0.00,CLR,,0.00,WeatherDisplay:10.37,2013-03-28 17:10:00,
2013-03-28 13:15:00,43.6,5.1,29.26,WSW,249,5.0,8.0,20,0.00,CLR,,0.00,WeatherDisplay:10.37,2013-03-28 17:15:00,
2013-03-28 13:20:00,44.9,6.2,29.26,WSW,252,5.0,6.0,20,0.00,CLR,,0.00,WeatherDisplay:10.37,2013-03-28 17:20:00,
2013-03-28 13:25:00,44.9,6.1,29.26,WSW,252,3.0,6.0,20,0.00,CLR,,0.00,WeatherDisplay:10.37,2013-03-28 17:25:00,
2013-03-28 13:30:00,44.2,5.6,29.26,West,272,3.0,6.0,20,0.00,CLR,,0.00,WeatherDisplay:10.37,2013-03-28 17:30:00,
2013-03-28 13:35:00,43.5,5.0,29.26,WNW,290,3.0,6.0,20,0.00,CLR,,0.00,WeatherDisplay:10.37,2013-03-28 17:35:00,
2013-03-28 13:40:00,43.3,4.9,29.26,NW,307,3.0,6.0,20,0.00,CLR,,0.00,WeatherDisplay:10.37,2013-03-28 17:40:00,
2013-03-28 13:45:00,43.0,4.6,29.26,NW,315,5.0,6.0,20,0.00,CLR,,0.00,WeatherDisplay:10.37,2013-03-28 17:45:00,
2013-03-28 13:50:00,43.8,5.2,29.26,NW,312,6.0,10.0,20,0.00,CLR,,0.00,WeatherDisplay:10.37,2013-03-28 17:50:00,
2013-03-28 13:55:00,43.6,5.1,29.26,WNW,295,6.0,10.0,20,0.00,CLR,,0.00,WeatherDisplay:10.37,2013-03-28 17:55:00,
2013-03-28 14:00:00,44.2,5.6,29.26,West,266,6.0,6.0,20,0.00,CLR,,0.00,WeatherDisplay:10.37,2013-03-28 18:00:00,
2013-03-28 14:05:00,44.0,5.4,29.26,WSW,258,3.0,8.0,20,0.00,CLR,,0.00,WeatherDisplay:10.37,2013-03-28 18:05:00,
2013-03-28 14:10:00,44.1,5.5,29.26,WSW,252,5.0,8.0,20,0.00,CLR,,0.00,WeatherDisplay:10.37,2013-03-28 18:10:00,
2013-03-28 14:15:00,44.5,5.8,29.26,West,259,5.0,8.0,20,0.00,CLR,,0.00,WeatherDisplay:10.37,2013-03-28 18:15:00,
2013-03-28 14:20:00,45.0,6.3,29.26,West,263,5.0,9.0,20,0.00,CLR,,0.00,WeatherDisplay:10.37,2013-03-28 18:20:00,
2013-03-28 14:25:00,44.6,5.9,29.26,West,264,3.0,8.0,20,0.00,CLR,,0.00,WeatherDisplay:10.37,2013-03-28 18:25:00,
2013-03-28 14:30:00,44.6,5.9,29.26,West,261,3.0,6.0,20,0.00,CLR,,0.00,WeatherDisplay:10.37,2013-03-28 18:30:00,
2013-03-28 14:35:00,44.6,5.9,29.26,WSW,255,6.0,8.0,20,0.00,CLR,,0.00,WeatherDisplay:10.37,2013-03-28 18:35:00,
2013-03-28 14:40:00,44.8,6.1,29.26,WSW,252,6.0,8.0,20,0.00,CLR,,0.00,WeatherDisplay:10.37,2013-03-28 18:40:00,
2013-03-28 14:45:00,44.8,6.1,29.26,WSW,255,5.0,8.0,20,0.00,CLR,,0.00,WeatherDisplay:10.37,2013-03-28 18:45:00,
2013-03-28 14:50:00,45.6,6.7,29.26,WSW,253,6.0,8.0,20,0.00,CLR,,0.00,WeatherDisplay:10.37,2013-03-28 18:50:00,
2013-03-28 14:55:00,45.1,6.4,29.26,WSW,254,5.0,9.0,20,0.00,CLR,,0.00,WeatherDisplay:10.37,2013-03-28 18:55:00,
2013-03-28 15:00:00,44.4,5.7,29.26,West,267,3.0,6.0,20,0.00,CLR,,0.00,WeatherDisplay:10.37,2013-03-28 19:00:00,
2013-03-28 15:05:00,44.3,5.7,29.26,WNW,289,5.0,8.0,20,0.00,CLR,,0.00,WeatherDisplay:10.37,2013-03-28 19:05:00,
2013-03-28 15:10:00,45.3,6.5,29.26,WNW,299,5.0,9.0,20,0.00,CLR,,0.00,WeatherDisplay:10.37,2013-03-28 19:10:00,
2013-03-28 15:15:00,45.1,6.4,29.26,WNW,285,5.0,6.0,20,0.00,CLR,,0.00,WeatherDisplay:10.37,2013-03-28 19:15:00,
2013-03-28 15:20:00,45.6,6.7,29.26,West,273,3.0,6.0,20,0.00,CLR,,0.00,WeatherDisplay:10.37,2013-03-28 19:20:00,
2013-03-28 15:25:00,45.9,7.0,29.26,West,259,5.0,8.0,20,0.00,CLR,,0.00,WeatherDisplay:10.37,2013-03-28 19:25:00,
2013-03-28 15:30:00,46.1,7.1,29.26,WSW,253,3.0,6.0,20,0.00,CLR,,0.00,WeatherDisplay:10.37,2013-03-28 19:30:00,
2013-03-28 15:35:00,45.4,6.6,29.26,West,273,6.0,6.0,20,0.00,CLR,,0.00,WeatherDisplay:10.37,2013-03-28 19:35:00,
2013-03-28 15:40:00,45.9,7.0,29.26,West,264,6.0,6.0,20,0.00,CLR,,0.00,WeatherDisplay:10.37,2013-03-28 19:40:00,
2013-03-28 15:45:00,45.5,6.7,29.26,WSW,247,8.0,8.0,20,0.00,CLR,,0.00,WeatherDisplay:10.37,2013-03-28 19:45:00,
2013-03-28 15:50:00,46.0,7.1,29.26,WSW,257,5.0,8.0,20,0.00,CLR,,0.00,WeatherDisplay:10.37,2013-03-28 19:50:00,
2013-03-28 15:55:00,45.6,6.7,29.26,West,263,6.0,6.0,20,0.00,CLR,,0.00,WeatherDisplay:10.37,2013-03-28 19:55:00,
2013-03-28 16:00:00,45.4,6.6,29.26,WSW,255,6.0,9.0,20,0.00,CLR,,0.00,WeatherDisplay:10.37,2013-03-28 20:00:00,
2013-03-28 16:05:00,45.2,6.4,29.26,WSW,255,6.0,8.0,20,0.00,CLR,,0.00,WeatherDisplay:10.37,2013-03-28 20:05:00,
2013-03-28 16:10:00,45.5,6.7,29.24,West,265,3.0,6.0,20,0.00,CLR,,0.00,WeatherDisplay:10.37,2013-03-28 20:10:00,
2013-03-28 16:15:00,45.1,6.4,29.24,West,266,6.0,8.0,20,0.00,CLR,,0.00,WeatherDisplay:10.37,2013-03-28 20:15:00,
2013-03-28 16:20:00,45.4,6.6,29.24,West,261,5.0,7.0,20,0.00,CLR,,0.00,WeatherDisplay:10.37,2013-03-28 20:20:00,
2013-03-28 16:25:00,45.1,6.4,29.24,WSW,257,7.0,8.0,20,0.00,CLR,,0.00,WeatherDisplay:10.37,2013-03-28 20:25:00,
2013-03-28 16:30:00,45.5,6.7,29.24,West,264,6.0,8.0,20,0.00,CLR,,0.00,WeatherDisplay:10.37,2013-03-28 20:30:00,
2013-03-28 16:35:00,45.1,6.4,29.24,West,272,5.0,6.0,20,0.00,CLR,,0.00,WeatherDisplay:10.37,2013-03-28 20:35:00,
2013-03-28 16:40:00,45.7,6.8,29.24,WSW,256,7.0,8.0,20,0.00,CLR,,0.00,WeatherDisplay:10.37,2013-03-28 20:40:00,
2013-03-28 16:45:00,45.3,6.5,29.24,West,267,5.0,8.0,20,0.00,CLR,,0.00,WeatherDisplay:10.37,2013-03-28 20:45:00,
2013-03-28 16:50:00,45.3,6.5,29.24,West,271,6.0,6.0,20,0.00,CLR,,0.00,WeatherDisplay:10.37,2013-03-28 20:50:00,
2013-03-28 16:55:00,45.5,6.7,29.24,West,264,3.0,6.0,20,0.00,CLR,,0.00,WeatherDisplay:10.37,2013-03-28 20:55:00,
2013-03-28 17:05:00,45.6,6.7,29.24,West,261,5.0,8.0,20,0.00,CLR,,0.00,WeatherDisplay:10.37,2013-03-28 21:05:00,
2013-03-28 17:10:00,45.6,6.7,29.24,WSW,258,5.0,8.0,20,0.00,CLR,,0.00,WeatherDisplay:10.37,2013-03-28 21:10:00,
2013-03-28 17:15:00,45.3,6.5,29.24,West,265,6.0,6.0,20,0.00,CLR,,0.00,WeatherDisplay:10.37,2013-03-28 21:15:00,
2013-03-28 17:20:00,45.8,6.9,29.24,WNW,292,3.0,6.0,20,0.00,CLR,,0.00,WeatherDisplay:10.37,2013-03-28 21:20:00,
2013-03-28 17:25:00,45.9,7.0,29.24,WNW,287,5.0,6.0,20,0.00,CLR,,0.00,WeatherDisplay:10.37,2013-03-28 21:25:00,
2013-03-28 17:30:00,46.4,6.3,29.24,WSW,254,6.0,8.0,19,0.00,CLR,,0.00,WeatherDisplay:10.37,2013-03-28 21:30:00,
2013-03-28 17:35:00,46.4,6.3,29.24,WSW,258,3.0,6.0,19,0.00,CLR,,0.00,WeatherDisplay:10.37,2013-03-28 21:35:00,
2013-03-28 17:40:00,45.2,6.4,29.24,WNW,296,5.0,7.0,20,0.00,CLR,,0.00,WeatherDisplay:10.37,2013-03-28 21:40:00,
2013-03-28 17:45:00,45.6,6.7,29.24,WNW,293,3.0,6.0,20,0.00,CLR,,0.00,WeatherDisplay:10.37,2013-03-28 21:45:00,
2013-03-28 17:50:00,46.0,7.1,29.24,West,263,2.0,6.0,20,0.00,CLR,,0.00,WeatherDisplay:10.37,2013-03-28 21:50:00,
2013-03-28 17:55:00,45.5,6.7,29.24,West,271,6.0,6.0,20,0.00,CLR,,0.00,WeatherDisplay:10.37,2013-03-28 21:55:00,
2013-03-28 18:00:00,46.0,7.1,29.24,West,278,3.0,7.0,20,0.00,CLR,,0.00,WeatherDisplay:10.37,2013-03-28 22:00:00,
2013-03-28 18:05:00,45.5,6.7,29.24,WNW,285,3.0,8.0,20,0.00,CLR,,0.00,WeatherDisplay:10.37,2013-03-28 22:05:00,
2013-03-28 18:10:00,45.5,6.7,29.24,WNW,291,5.0,6.0,20,0.00,CLR,,0.00,WeatherDisplay:10.37,2013-03-28 22:10:00,
2013-03-28 18:15:00,45.4,6.6,29.24,West,267,6.0,8.0,20,0.00,CLR,,0.00,WeatherDisplay:10.37,2013-03-28 22:15:00,
2013-03-28 18:20:00,45.1,6.4,29.24,WSW,256,5.0,7.0,20,0.00,CLR,,0.00,WeatherDisplay:10.37,2013-03-28 22:20:00,
2013-03-28 18:30:00,45.2,6.4,29.24,West,268,2.0,6.0,20,0.00,CLR,,0.00,WeatherDisplay:10.37,2013-03-28 22:30:00,
2013-03-28 18:35:00,45.1,6.4,29.24,WSW,257,3.0,6.0,20,0.00,CLR,,0.00,WeatherDisplay:10.37,2013-03-28 22:35:00,
2013-03-28 18:40:00,45.1,6.4,29.24,WSW,253,3.0,8.0,20,0.00,CLR,,0.00,WeatherDisplay:10.37,2013-03-28 22:40:00,
2013-03-28 18:45:00,44.6,5.9,29.24,WSW,257,5.0,6.0,20,0.00,CLR,,0.00,WeatherDisplay:10.37,2013-03-28 22:45:00,
2013-03-28 18:50:00,44.4,5.8,29.24,WSW,252,5.0,6.0,20,0.00,CLR,,0.00,WeatherDisplay:10.37,2013-03-28 22:50:00,
2013-03-28 18:55:00,43.5,5.0,29.24,WSW,250,5.0,6.0,20,0.00,CLR,,0.00,WeatherDisplay:10.37,2013-03-28 22:55:00,
2013-03-28 19:00:00,43.3,4.9,29.24,WSW,258,2.0,4.0,20,0.00,CLR,,0.00,WeatherDisplay:10.37,2013-03-28 23:00:00,
2013-03-28 19:05:00,42.3,5.1,29.24,West,262,2.0,4.0,21,0.00,CLR,,0.00,WeatherDisplay:10.37,2013-03-28 23:05:00,
2013-03-28 19:10:00,41.7,4.6,29.24,WSW,253,3.0,6.0,21,0.00,CLR,,0.00,WeatherDisplay:10.37,2013-03-28 23:10:00,
2013-03-28 19:15:00,41.3,4.3,29.24,WSW,250,2.0,4.0,21,0.00,CLR,,0.00,WeatherDisplay:10.37,2013-03-28 23:15:00,
2013-03-28 19:20:00,41.2,4.2,29.24,WSW,246,3.0,4.0,21,0.00,CLR,,0.00,WeatherDisplay:10.37,2013-03-28 23:20:00,
2013-03-28 19:25:00,41.5,4.4,29.24,WSW,245,3.0,5.0,21,0.00,CLR,,0.00,WeatherDisplay:10.37,2013-03-28 23:25:00,
2013-03-28 19:30:00,41.5,4.4,29.24,WSW,249,3.0,6.0,21,0.00,CLR,,0.00,WeatherDisplay:10.37,2013-03-28 23:30:00,
2013-03-28 19:35:00,41.5,4.4,29.24,WSW,243,3.0,6.0,21,0.00,CLR,,0.00,WeatherDisplay:10.37,2013-03-28 23:35:00,
2013-03-28 19:40:00,41.2,4.1,29.24,WSW,238,3.0,4.0,21,0.00,CLR,,0.00,WeatherDisplay:10.37,2013-03-28 23:40:00,
2013-03-28 19:45:00,40.8,3.8,29.24,WSW,240,0.0,4.0,21,0.00,CLR,,0.00,WeatherDisplay:10.37,2013-03-28 23:45:00,
2013-03-28 19:50:00,40.5,3.5,29.24,WSW,240,2.0,4.0,21,0.00,CLR,,0.00,WeatherDisplay:10.37,2013-03-28 23:50:00,
2013-03-28 19:55:00,40.1,3.2,29.24,WSW,241,2.0,4.0,21,0.00,CLR,,0.00,WeatherDisplay:10.37,2013-03-28 23:55:00,
2013-03-28 20:00:00,39.9,3.1,29.24,WSW,241,0.0,4.0,21,0.00,CLR,,0.00,WeatherDisplay:10.37,2013-03-29 00:00:00,
2013-03-28 20:05:00,39.6,2.8,29.24,WSW,241,0.0,0.0,21,0.00,CLR,,0.00,WeatherDisplay:10.37,2013-03-29 00:05:00,
2013-03-28 20:10:00,39.2,2.5,29.20,WSW,241,0.0,0.0,21,0.00,CLR,,0.00,WeatherDisplay:10.37,2013-03-29 00:10:00,
2013-03-28 20:15:00,38.8,2.2,29.20,WSW,241,0.0,2.0,21,0.00,CLR,,0.00,WeatherDisplay:10.37,2013-03-29 00:15:00,
2013-03-28 20:20:00,38.5,1.9,29.20,WSW,241,0.0,3.0,21,0.00,CLR,,0.00,WeatherDisplay:10.37,2013-03-29 00:20:00,
2013-03-28 20:25:00,38.3,1.7,29.24,WSW,241,0.0,0.0,21,0.00,CLR,,0.00,WeatherDisplay:10.37,2013-03-29 00:25:00,
2013-03-28 20:30:00,38.1,1.6,29.24,WSW,241,0.0,0.0,21,0.00,CLR,,0.00,WeatherDisplay:10.37,2013-03-29 00:30:00,
2013-03-28 20:35:00,37.9,1.4,29.24,WSW,241,0.0,0.0,21,0.00,CLR,,0.00,WeatherDisplay:10.37,2013-03-29 00:35:00,
2013-03-28 20:40:00,37.6,1.1,29.24,WSW,241,0.0,0.0,21,0.00,CLR,,0.00,WeatherDisplay:10.37,2013-03-29 00:40:00,
2013-03-28 20:45:00,37.4,0.9,29.24,WSW,241,0.0,0.0,21,0.00,CLR,,0.00,WeatherDisplay:10.37,2013-03-29 00:45:00,
2013-03-28 20:55:00,36.9,1.5,29.24,WSW,241,0.0,0.0,22,0.00,CLR,,0.00,WeatherDisplay:10.37,2013-03-29 00:55:00,
2013-03-28 21:00:00,36.7,1.3,29.24,WSW,241,0.0,0.0,22,0.00,CLR,,0.00,WeatherDisplay:10.37,2013-03-29 01:00:00,
2013-03-28 21:05:00,36.3,1.0,29.24,WSW,241,0.0,0.0,22,0.00,CLR,,0.00,WeatherDisplay:10.37,2013-03-29 01:05:00,
2013-03-28 21:10:00,36.1,0.9,29.24,WSW,241,0.0,0.0,22,0.00,CLR,,0.00,WeatherDisplay:10.37,2013-03-29 01:10:00,
2013-03-28 21:15:00,36.1,0.9,29.24,WSW,241,0.0,0.0,22,0.00,CLR,,0.00,WeatherDisplay:10.37,2013-03-29 01:15:00,
2013-03-28 21:20:00,35.8,0.6,29.24,WSW,241,0.0,0.0,22,0.00,CLR,,0.00,WeatherDisplay:10.37,2013-03-29 01:20:00,
2013-03-28 21:25:00,35.6,0.4,29.24,WSW,241,0.0,0.0,22,0.00,CLR,,0.00,WeatherDisplay:10.37,2013-03-29 01:25:00,
2013-03-28 21:30:00,35.6,0.4,29.24,WSW,241,0.0,0.0,22,0.00,CLR,,0.00,WeatherDisplay:10.37,2013-03-29 01:30:00,
2013-03-28 21:35:00,35.6,0.4,29.24,WSW,241,0.0,0.0,22,0.00,CLR,,0.00,WeatherDisplay:10.37,2013-03-29 01:35:00,
2013-03-28 21:40:00,35.6,0.4,29.24,WSW,241,0.0,0.0,22,0.00,CLR,,0.00,WeatherDisplay:10.37,2013-03-29 01:40:00,
2013-03-28 21:45:00,35.6,0.4,29.24,WSW,241,0.0,3.0,22,0.00,CLR,,0.00,WeatherDisplay:10.37,2013-03-29 01:45:00,
2013-03-28 21:50:00,35.6,0.4,29.24,WSW,241,0.0,3.0,22,0.00,CLR,,0.00,WeatherDisplay:10.37,2013-03-29 01:50:00,
2013-03-28 21:55:00,35.4,0.3,29.24,WSW,241,0.0,3.0,22,0.00,CLR,,0.00,WeatherDisplay:10.37,2013-03-29 01:55:00,
2013-03-28 22:00:00,35.2,0.1,29.24,WSW,241,0.0,3.0,22,0.00,CLR,,0.00,WeatherDisplay:10.37,2013-03-29 02:00:00,
2013-03-28 22:05:00,35.2,0.1,29.24,WSW,241,0.0,0.0,22,0.00,CLR,,0.00,WeatherDisplay:10.37,2013-03-29 02:05:00,
2013-03-28 22:10:00,35.2,0.1,29.20,WSW,241,0.0,3.0,22,0.00,CLR,,0.00,WeatherDisplay:10.37,2013-03-29 02:10:00,
2013-03-28 22:15:00,35.1,0.0,29.20,WSW,241,0.0,0.0,22,0.00,CLR,,0.00,WeatherDisplay:10.37,2013-03-29 02:15:00,
2013-03-28 22:20:00,34.9,-0.2,29.20,WSW,241,0.0,0.0,22,0.00,CLR,,0.00,WeatherDisplay:10.37,2013-03-29 02:20:00,
2013-03-28 22:25:00,34.6,-0.5,29.24,WSW,241,0.0,0.0,22,0.00,CLR,,0.00,WeatherDisplay:10.37,2013-03-29 02:25:00,
2013-03-28 22:30:00,34.5,-0.5,29.24,WSW,241,0.0,0.0,22,0.00,CLR,,0.00,WeatherDisplay:10.37,2013-03-29 02:30:00,
2013-03-28 22:35:00,34.7,-0.3,29.24,WSW,241,0.0,3.0,22,0.00,CLR,,0.00,WeatherDisplay:10.37,2013-03-29 02:35:00,
2013-03-28 22:40:00,34.9,-0.2,29.24,WSW,241,0.0,0.0,22,0.00,CLR,,0.00,WeatherDisplay:10.37,2013-03-29 02:40:00,
2013-03-28 22:45:00,34.9,-0.2,29.24,WSW,241,0.0,0.0,22,0.00,CLR,,0.00,WeatherDisplay:10.37,2013-03-29 02:45:00,
2013-03-28 22:50:00,34.9,-0.2,29.24,WSW,241,0.0,0.0,22,0.00,CLR,,0.00,WeatherDisplay:10.37,2013-03-29 02:50:00,
2013-03-28 22:55:00,34.7,-0.3,29.24,WSW,241,0.0,0.0,22,0.00,CLR,,0.00,WeatherDisplay:10.37,2013-03-29 02:55:00,
2013-03-28 23:00:00,34.5,-0.5,29.24,WSW,241,0.0,0.0,22,0.00,CLR,,0.00,WeatherDisplay:10.37,2013-03-29 03:00:00,
2013-03-28 23:05:00,34.3,-0.6,29.24,WSW,241,0.0,0.0,22,0.00,CLR,,0.00,WeatherDisplay:10.37,2013-03-29 03:05:00,
2013-03-28 23:10:00,34.0,-1.0,29.24,WSW,241,0.0,0.0,22,0.00,CLR,,0.00,WeatherDisplay:10.37,2013-03-29 03:10:00,
2013-03-28 23:15:00,33.8,-1.1,29.24,WSW,241,0.0,0.0,22,0.00,CLR,,0.00,WeatherDisplay:10.37,2013-03-29 03:15:00,
2013-03-28 23:20:00,33.8,-1.1,29.24,WSW,241,0.0,0.0,22,0.00,CLR,,0.00,WeatherDisplay:10.37,2013-03-29 03:20:00,
2013-03-28 23:25:00,33.8,-1.1,29.24,WSW,241,0.0,0.0,22,0.00,CLR,,0.00,WeatherDisplay:10.37,2013-03-29 03:25:00,
2013-03-28 23:30:00,33.8,-1.1,29.24,WSW,241,0.0,0.0,22,0.00,CLR,,0.00,WeatherDisplay:10.37,2013-03-29 03:30:00,
2013-03-28 23:35:00,33.5,-0.4,29.24,WSW,241,0.0,0.0,23,0.00,CLR,,0.00,WeatherDisplay:10.37,2013-03-29 03:35:00,
2013-03-28 23:40:00,33.3,-0.6,29.24,WSW,241,0.0,0.0,23,0.00,CLR,,0.00,WeatherDisplay:10.37,2013-03-29 03:40:00,
2013-03-28 23:45:00,33.1,-0.8,29.24,WSW,241,0.0,0.0,23,0.00,CLR,,0.00,WeatherDisplay:10.37,2013-03-29 03:45:00,
2013-03-28 23:50:00,32.9,-0.9,29.24,WSW,241,0.0,0.0,23,0.00,CLR,,0.00,WeatherDisplay:10.37,2013-03-29 03:50:00,
2013-03-28 23:55:00,32.9,-0.9,29.24,WSW,241,0.0,0.0,23,0.00,CLR,,0.00,WeatherDisplay:10.37,2013-03-29 03:55:00,